Tracking 29782 objects as of 13-Oct-2024
HD Live streaming from Space Station
objects crossing your sky now

SL-23 DEB

Track SL-23 DEB now!


NORAD ID: 43385
Int'l Code: 2009-009D
Perigee: 1,211.0 km
Apogee: 35,806.1 km
Inclination: 34.8 °
Period: 650.9 minutes
Semi major axis: 24879 km
RCS: Unknown
Launch date: February 26, 2009
Source: Commonwealth of Independent States (former USSR) (CIS)
Launch site: TYURATAM MISSILE AND SPACE COMPLEX (TTMTR)

Note: This is SATELLITE DEBRIS
Your satellite tracking list
Your tracking list is empty




NASA's NSSDC Master Catalog

Two Line Element Set (TLE):
1 43385U 09009D   24282.34036968 -.00000128  00000-0  00000-0 0  9990
2 43385  34.8355   2.3981 6952509  55.2139 359.6092  2.21227761 90875
Source of the keplerian elements: AFSPC